^^
B2 Weather Station Historical Data
Daily Summary for January 3, 2018 Units:  Metric    English   Both
Daily Weekly Monthly Yearly Custom
  High: Low: Average:
Temperature: -8.3 °C -17 °C -11.8 °C
Dew Point: -10.2 °C -19.9 °C -14.7 °C
Humidity: 88% 72% 79%
Wind Speed: 27.8km/h 0km/h 15km/h
Wind Gust: 27.8km/h - -
Wind- - West
Pressure: 1024.9 hPa 1017.5 hPa -
Precipitation: 1.02 mm    
Historical Graphs
 
 
Tabular Data for January 3, 2018
Time Temperature Dew Point Pressure Wind Wind Speed Wind Gust Humidity Rainfall Rate (Hourly) solar
00:01 -14.6 °C -17.9 °C 1022.2 hPa SSW 11.1 km/h 11.1 km/h 76% 0 mm 0.0 W/m2
00:07 -14.6 °C -17.8 °C 1022.2 hPa SSW 11.1 km/h 11.1 km/h 76% 0 mm 0.0 W/m2
00:08 -14.6 °C -17.8 °C 1022.2 hPa SSW 13 km/h 13 km/h 76% 0 mm 0.0 W/m2
00:13 -14.5 °C -17.8 °C 1021.9 hPa WSW 14.8 km/h 14.8 km/h 76% 0 mm 0.0 W/m2
00:16 -14.5 °C -17.8 °C 1021.9 hPa SSW 9.3 km/h 9.3 km/h 76% 0 mm 0.0 W/m2
00:21 -14.4 °C -17.7 °C 1021.9 hPa SSW 11.1 km/h 11.1 km/h 76% 0 mm 0.0 W/m2
00:22 -14.4 °C -17.7 °C 1021.9 hPa SSW 19.3 km/h 19.3 km/h 76% 0 mm 0.0 W/m2
00:25 -14.4 °C -17.7 °C 1021.9 hPa SW 11.1 km/h 11.1 km/h 76% 0 mm 0.0 W/m2
00:28 -14.4 °C -17.7 °C 1021.6 hPa SW 16.7 km/h 16.7 km/h 76% 0 mm 0.0 W/m2
00:33 -14.3 °C -17.6 °C 1021.6 hPa SSW 18.5 km/h 18.5 km/h 76% 0 mm 0.0 W/m2
00:38 -14.2 °C -17.5 °C 1021.6 hPa SSW 18.5 km/h 18.5 km/h 76% 0 mm 0.0 W/m2
00:42 -14.1 °C -17.4 °C 1021.6 hPa SSW 18.5 km/h 18.5 km/h 76% 0 mm 0.0 W/m2
00:44 -14.1 °C -17.4 °C 1021.6 hPa SSW 19.3 km/h 19.3 km/h 76% 0 mm 0.0 W/m2
00:49 -13.9 °C -17.3 °C 1021.2 hPa SSW 11.1 km/h 11.1 km/h 76% 0 mm 0.0 W/m2
00:50 -13.9 °C -17.3 °C 1021.2 hPa SW 16.7 km/h 16.7 km/h 76% 0 mm 0.0 W/m2
00:55 -13.8 °C -17.2 °C 1021.2 hPa SW 18.5 km/h 18.5 km/h 76% 0 mm 0.0 W/m2
00:56 -13.8 °C -17.1 °C 1021.2 hPa SW 18.5 km/h 18.5 km/h 76% 0 mm 0.0 W/m2
00:57 -13.8 °C -17.3 °C 1021.2 hPa SSW 14.8 km/h 14.8 km/h 75% 0 mm 0.0 W/m2
01:01 -13.7 °C -17.2 °C 1021.2 hPa SW 18.5 km/h 18.5 km/h 75% 0 mm 0.0 W/m2
01:04 -13.7 °C -17.2 °C 1021.2 hPa SSW 18.5 km/h 18.5 km/h 75% 0 mm 0.0 W/m2
01:06 -13.7 °C -17.2 °C 1020.9 hPa SSW 18.5 km/h 18.5 km/h 75% 0 mm 0.0 W/m2
01:10 -13.6 °C -17.1 °C 1020.9 hPa SSW 18.5 km/h 18.5 km/h 75% 0 mm 0.0 W/m2
01:12 -13.6 °C -17.1 °C 1020.9 hPa SSW 18.5 km/h 18.5 km/h 75% 0 mm 0.0 W/m2
01:15 -13.5 °C -17 °C 1020.5 hPa SW 18.5 km/h 18.5 km/h 75% 0 mm 0.0 W/m2
01:18 -13.4 °C -16.9 °C 1020.5 hPa South 14.8 km/h 14.8 km/h 75% 0 mm 0.0 W/m2
01:22 -13.3 °C -16.8 °C 1020.5 hPa SSW 18.5 km/h 18.5 km/h 75% 0 mm 0.0 W/m2
01:24 -13.3 °C -16.8 °C 1020.5 hPa South 18.5 km/h 18.5 km/h 75% 0 mm 0.0 W/m2
01:29 -13.2 °C -16.7 °C 1020.5 hPa SSW 14.8 km/h 14.8 km/h 75% 0 mm 0.0 W/m2
01:31 -13.2 °C -16.7 °C 1020.5 hPa SSW 20.4 km/h 20.4 km/h 75% 0 mm 0.0 W/m2
01:32 -13.2 °C -16.7 °C 1020.5 hPa North 20.4 km/h 20.4 km/h 75% 0 mm 0.0 W/m2
01:37 -13.1 °C -16.8 °C 1020.5 hPa SSW 18.5 km/h 18.5 km/h 74% 0 mm 0.0 W/m2
01:42 -13.1 °C -16.7 °C 1020.5 hPa SSW 25.9 km/h 25.9 km/h 74% 0 mm 0.0 W/m2
01:45 -13 °C -16.7 °C 1020.5 hPa SSW 13 km/h 13 km/h 74% 0 mm 0.0 W/m2
01:48 -13 °C -16.7 °C 1020.5 hPa SSW 18.5 km/h 18.5 km/h 74% 0 mm 0.0 W/m2
01:50 -13 °C -16.7 °C 1020.5 hPa WSW 17.7 km/h 17.7 km/h 74% 0 mm 0.0 W/m2
01:59 -12.8 °C -16.5 °C 1020.2 hPa SSW 16.7 km/h 16.7 km/h 74% 0 mm 0.0 W/m2
02:04 -12.8 °C -16.5 °C 1020.2 hPa SW 18.5 km/h 18.5 km/h 74% 0 mm 0.0 W/m2
02:05 -12.8 °C -16.5 °C 1020.2 hPa SW 14.8 km/h 14.8 km/h 74% 0 mm 0.0 W/m2
02:10 -12.8 °C -16.5 °C 1020.2 hPa SW 11.1 km/h 11.1 km/h 74% 0 mm 0.0 W/m2
02:11 -12.8 °C -16.4 °C 1020.2 hPa SSW 11.1 km/h 11.1 km/h 74% 0 mm 0.0 W/m2
02:16 -12.8 °C -16.3 °C 1020.2 hPa SSW 9.3 km/h 9.3 km/h 75% 0 mm 0.0 W/m2
02:18 -12.7 °C -16.2 °C 1020.2 hPa SSW 18.5 km/h 18.5 km/h 75% 0 mm 0.0 W/m2
02:23 -12.7 °C -16.2 °C 1019.9 hPa SSW 18.5 km/h 18.5 km/h 75% 0 mm 0.0 W/m2
02:30 -12.6 °C -16.1 °C 1019.9 hPa SW 13 km/h 13 km/h 75% 0 mm 0.0 W/m2
02:33 -12.6 °C -16.1 °C 1019.9 hPa SSW 13 km/h 13 km/h 75% 0 mm 0.0 W/m2
02:35 -12.6 °C -15.9 °C 1019.9 hPa South 18.5 km/h 18.5 km/h 76% 0 mm 0.0 W/m2
02:40 -12.5 °C -16 °C 1019.9 hPa SSW 16.7 km/h 16.7 km/h 75% 0 mm 0.0 W/m2
02:45 -12.4 °C -15.9 °C 1019.9 hPa SSW 8 km/h 8 km/h 75% 0 mm 0.0 W/m2
02:46 -12.4 °C -15.9 °C 1019.9 hPa SSW 4.8 km/h 4.8 km/h 75% 0 mm 0.0 W/m2
02:47 -12.4 °C -15.9 °C 1019.9 hPa SSW 13 km/h 13 km/h 75% 0 mm 0.0 W/m2
02:51 -12.3 °C -15.7 °C 1019.5 hPa SSW 11.1 km/h 11.1 km/h 76% 0 mm 0.0 W/m2
02:56 -12.2 °C -15.6 °C 1019.5 hPa South 4.8 km/h 4.8 km/h 76% 0 mm 0.0 W/m2
02:58 -12.2 °C -15.6 °C 1019.5 hPa South 14.8 km/h 14.8 km/h 76% 0 mm 0.0 W/m2
03:00 -12.1 °C -15.7 °C 1019.5 hPa SSW 13 km/h 13 km/h 75% 0 mm 0.0 W/m2
03:04 -11.9 °C -15.5 °C 1019.5 hPa SW 16.7 km/h 16.7 km/h 75% 0 mm 0.0 W/m2
03:06 -11.9 °C -15.5 °C 1019.5 hPa SSW 16.7 km/h 16.7 km/h 75% 0 mm 0.0 W/m2
03:09 -11.8 °C -15.4 °C 1019.5 hPa South 11.1 km/h 11.1 km/h 75% 0 mm 0.0 W/m2
03:11 -11.8 °C -15.3 °C 1019.5 hPa Calm     75% 0 mm 0.0 W/m2
03:16 -11.8 °C -15.5 °C 1019.2 hPa WSW 12.9 km/h 12.9 km/h 74% 0 mm 0.0 W/m2
03:21 -11.7 °C -15.4 °C 1019.2 hPa SSW 3.7 km/h 3.7 km/h 74% 0 mm 0.0 W/m2
03:22 -11.7 °C -15.4 °C 1019.2 hPa SSW 14.8 km/h 14.8 km/h 74% 0 mm 0.0 W/m2
03:27 -11.7 °C -15.4 °C 1019.2 hPa SW 14.5 km/h 14.5 km/h 74% 0 mm 0.0 W/m2
03:28 -11.7 °C -15.4 °C 1019.2 hPa SSW 14.8 km/h 14.8 km/h 74% 0 mm 0.0 W/m2
03:31 -11.7 °C -15.4 °C 1019.2 hPa SW 11.1 km/h 11.1 km/h 74% 0 mm 0.0 W/m2
03:33 -11.6 °C -15.3 °C 1019.2 hPa SSW 11.1 km/h 11.1 km/h 74% 0 mm 0.0 W/m2
03:39 -11.6 °C -15.1 °C 1018.8 hPa SSW 14.8 km/h 14.8 km/h 75% 0 mm 0.0 W/m2
03:40 -11.6 °C -15.1 °C 1018.8 hPa South 18.5 km/h 18.5 km/h 75% 0 mm 0.0 W/m2
03:44 -11.4 °C -15.2 °C 1018.8 hPa SW 6.4 km/h 6.4 km/h 74% 0 mm 0.0 W/m2
03:47 -11.4 °C -15.1 °C 1019.2 hPa SW 1.6 km/h 1.6 km/h 74% 0 mm 0.0 W/m2
03:50 -11.3 °C -15.1 °C 1018.8 hPa SSW 13 km/h 13 km/h 74% 0 mm 0.0 W/m2
03:55 -11.3 °C -15 °C 1018.8 hPa SW 13 km/h 13 km/h 74% 0 mm 0.0 W/m2
03:59 -11.2 °C -15.1 °C 1018.8 hPa SSW 9.3 km/h 9.3 km/h 73% 0 mm 0.0 W/m2
04:01 -11.2 °C -15.1 °C 1018.8 hPa SW 11.1 km/h 11.1 km/h 73% 0 mm 0.0 W/m2
04:06 -11.1 °C -14.9 °C 1018.8 hPa SSW 16.7 km/h 16.7 km/h 73% 0 mm 0.0 W/m2
04:11 -10.9 °C -14.8 °C 1018.5 hPa SSW 11.3 km/h 11.3 km/h 73% 0 mm 0.0 W/m2
04:13 -10.9 °C -14.8 °C 1018.5 hPa SW 11.3 km/h 11.3 km/h 73% 0 mm 0.0 W/m2
04:18 -10.9 °C -14.9 °C 1018.5 hPa SSW 14.8 km/h 14.8 km/h 72% 0 mm 0.0 W/m2
04:19 -10.9 °C -14.9 °C 1018.5 hPa SSW 20.4 km/h 20.4 km/h 72% 0 mm 0.0 W/m2
04:20 -10.8 °C -14.9 °C 1018.2 hPa SSW 11.1 km/h 11.1 km/h 72% 0 mm 0.0 W/m2
04:25 -10.8 °C -14.8 °C 1018.2 hPa SSW 11.1 km/h   72% 0 mm 0.0 W/m2
04:26 -10.8 °C -14.8 °C 1018.2 hPa Calm     72% 0 mm 0.0 W/m2
04:28 -10.8 °C -14.7 °C 1018.5 hPa SSW 7.4 km/h 7.4 km/h 73% 0 mm 0.0 W/m2
04:32 -10.8 °C -14.7 °C 1018.2 hPa SSW 13 km/h 13 km/h 73% 0 mm 0.0 W/m2
04:35 -10.8 °C -14.7 °C 1018.2 hPa SSW 8 km/h 8 km/h 73% 0 mm 0.0 W/m2
04:39 -10.7 °C -14.6 °C 1018.2 hPa SW 16.7 km/h 16.7 km/h 73% 0 mm 0.0 W/m2
04:44 -10.7 °C -14.4 °C 1018.2 hPa SW 16.1 km/h 16.1 km/h 74% 0 mm 0.0 W/m2
04:49 -10.7 °C -14.4 °C 1018.2 hPa SSW 7.4 km/h 7.4 km/h 74% 0 mm 0.0 W/m2
04:50 -10.7 °C -14.3 °C 1018.2 hPa SSW 5.6 km/h 5.6 km/h 75% 0 mm 0.0 W/m2
04:58 -10.7 °C -14.1 °C 1018.2 hPa Calm     76% 0 mm 0.0 W/m2
05:04 -10.7 °C -14.1 °C 1018.2 hPa Calm     76% 0 mm 0.0 W/m2
05:09 -10.6 °C -13.9 °C 1018.2 hPa SW 14.8 km/h 14.8 km/h 77% 0 mm 0.0 W/m2
05:12 -10.6 °C -13.8 °C 1018.2 hPa WSW 13 km/h 13 km/h 77% 0 mm 0.0 W/m2
05:16 -10.5 °C -13.6 °C 1018.2 hPa SW 20.4 km/h 20.4 km/h 78% 0 mm 0.0 W/m2
05:19 -10.4 °C -13.6 °C 1018.2 hPa SW 20.4 km/h 20.4 km/h 78% 0 mm 0.0 W/m2
05:22 -10.4 °C -13.4 °C 1018.2 hPa WSW 12.9 km/h 12.9 km/h 79% 0 mm 0.0 W/m2
05:27 -10.4 °C -13.1 °C 1018.5 hPa SW 18.5 km/h 18.5 km/h 81% 0 mm 0.0 W/m2
05:31 -10.4 °C -12.9 °C 1018.5 hPa SW 14.8 km/h 14.8 km/h 82% 0 mm 0.0 W/m2
05:32 -10.5 °C -12.8 °C 1018.5 hPa WSW 13 km/h 13 km/h 83% 0 mm 0.0 W/m2
05:37 -10.6 °C -12.7 °C 1018.2 hPa WSW 18.5 km/h 18.5 km/h 84% 0 mm 0.0 W/m2
05:41 -10.6 °C -12.7 °C 1018.2 hPa WSW 12.9 km/h 12.9 km/h 84% 0 mm 0.0 W/m2
05:46 -10.6 °C -12.6 °C 1018.2 hPa SW 13 km/h 13 km/h 85% 0 mm 0.0 W/m2
05:48 -10.6 °C -12.6 °C 1018.2 hPa SW 14.8 km/h 14.8 km/h 85% 0 mm 0.0 W/m2
05:53 -10.6 °C -12.4 °C 1018.2 hPa SSW 13 km/h 13 km/h 86% 0 mm 0.0 W/m2
05:54 -10.6 °C -12.4 °C 1017.8 hPa SW 14.8 km/h 14.8 km/h 86% 0 mm 0.0 W/m2
05:58 -10.5 °C -12.4 °C 1017.8 hPa SSW 13 km/h 13 km/h 86% 0 mm 0.0 W/m2
06:00 -10.5 °C -12.4 °C 1017.8 hPa WSW 14.8 km/h 14.8 km/h 86% 0 mm 0.0 W/m2
06:04 -10.5 °C -12.4 °C 1018.2 hPa SW 13 km/h 13 km/h 86% 0 mm 0.0 W/m2
06:09 -10.4 °C -12.3 °C 1017.8 hPa SSW 18.5 km/h 18.5 km/h 86% 0 mm 0.0 W/m2
06:10 -10.4 °C -12.2 °C 1017.8 hPa WSW 16.7 km/h 16.7 km/h 87% 0 mm 0.0 W/m2
06:16 -10.4 °C -12.2 °C 1017.8 hPa SW 13 km/h 13 km/h 87% 0 mm 0.0 W/m2
06:18 -10.4 °C -12.1 °C 1017.8 hPa SW 18.5 km/h 18.5 km/h 87% 0 mm 0.0 W/m2
06:21 -10.4 °C -12.1 °C 1017.8 hPa WSW 18.5 km/h 18.5 km/h 87% 0 mm 0.0 W/m2
06:26 -10.3 °C -12.1 °C 1017.8 hPa SW 3.2 km/h 3.2 km/h 87% 0 mm 0.0 W/m2
06:27 -10.3 °C -12.1 °C 1017.8 hPa WSW 8 km/h 8 km/h 87% 0 mm 0.0 W/m2
06:32 -10.3 °C -12 °C 1018.2 hPa SW 13 km/h 13 km/h 87% 0 mm 0.0 W/m2
06:37 -10.2 °C -11.9 °C 1018.2 hPa WSW 13 km/h 13 km/h 87% 0 mm 0.0 W/m2
06:42 -10.2 °C -11.9 °C 1018.2 hPa SW 14.8 km/h 14.8 km/h 87% 0 mm 0.0 W/m2
06:43 -10.2 °C -11.9 °C 1018.2 hPa WSW 11.3 km/h 11.3 km/h 87% 0 mm 0.0 W/m2
06:48 -10.1 °C -11.9 °C 1017.8 hPa WSW 9.3 km/h 9.3 km/h 87% 0 mm 0.0 W/m2
06:49 -10.1 °C -11.9 °C 1017.8 hPa WSW 13 km/h 13 km/h 87% 0 mm 0.0 W/m2
06:51 -10.1 °C -11.7 °C 1017.8 hPa WSW 11.1 km/h 11.1 km/h 88% 0 mm 0.0 W/m2
06:55 -10.1 °C -11.8 °C 1018.2 hPa SW 14.8 km/h 14.8 km/h 87% 0 mm 0.0 W/m2
07:00 -10 °C -11.8 °C 1018.2 hPa SW 16.7 km/h 16.7 km/h 87% 0 mm 0.0 W/m2
07:06 -9.9 °C -11.7 °C 1017.8 hPa WSW 16.1 km/h 16.1 km/h 87% 0 mm 0.0 W/m2
07:07 -9.9 °C -11.7 °C 1017.8 hPa WSW 18.5 km/h 18.5 km/h 87% 0 mm 0.0 W/m2
07:12 -9.9 °C -11.7 °C 1018.2 hPa SW 14.8 km/h 14.8 km/h 87% 0 mm 0.0 W/m2
07:13 -9.9 °C -11.7 °C 1018.2 hPa SW 13 km/h 13 km/h 87% 0 mm 0.0 W/m2
07:18 -9.8 °C -11.6 °C 1017.8 hPa WSW 20.4 km/h 20.4 km/h 87% 0 mm 0.0 W/m2
07:20 -9.8 °C -11.6 °C 1017.8 hPa North 16.7 km/h 16.7 km/h 87% 0 mm 0.0 W/m2
07:23 -9.8 °C -11.6 °C 1017.8 hPa WSW 11.1 km/h 11.1 km/h 87% 0 mm 0.0 W/m2
07:28 -9.8 °C -11.6 °C 1017.8 hPa WSW 14.8 km/h 14.8 km/h 87% 0 mm 7.0 W/m2
07:29 -9.8 °C -11.6 °C 1017.8 hPa WSW 14.8 km/h 14.8 km/h 87% 0 mm 7.0 W/m2
07:37 -9.7 °C -11.6 °C 1017.8 hPa West 9.7 km/h 9.7 km/h 86% 0 mm 12.0 W/m2
07:41 -9.7 °C -11.6 °C 1017.5 hPa West 20.4 km/h 20.4 km/h 86% 0 mm 14.0 W/m2
07:43 -9.7 °C -11.6 °C 1017.5 hPa WSW 13 km/h 13 km/h 86% 0 mm 16.0 W/m2
07:48 -9.6 °C -11.5 °C 1017.5 hPa West 13 km/h 13 km/h 86% 0 mm 21.0 W/m2
07:49 -9.6 °C -11.5 °C 1017.5 hPa WNW 14.8 km/h 14.8 km/h 86% 0 mm 21.0 W/m2
07:54 -9.6 °C -11.4 °C 1017.8 hPa WSW 14.8 km/h 14.8 km/h 86% 0 mm 25.0 W/m2
07:55 -9.6 °C -11.4 °C 1017.8 hPa WSW 13 km/h 13 km/h 86% 0 mm 25.0 W/m2
07:56 -9.6 °C -11.4 °C 1017.8 hPa WSW 14.5 km/h 14.5 km/h 86% 0 mm 25.0 W/m2
08:03 -9.5 °C -11.4 °C 1017.8 hPa WSW 13 km/h 13 km/h 86% 0 mm 33.0 W/m2
08:08 -9.4 °C -11.5 °C 1017.5 hPa WSW 14.8 km/h 14.8 km/h 85% 0 mm 42.0 W/m2
08:10 -9.4 °C -11.4 °C 1017.5 hPa WSW 13 km/h 13 km/h 85% 0 mm 42.0 W/m2
08:15 -9.3 °C -11.4 °C 1017.5 hPa WSW 16.7 km/h 16.7 km/h 85% 0 mm 47.0 W/m2
08:16 -9.3 °C -11.4 °C 1017.5 hPa WSW 11.1 km/h 11.1 km/h 85% 0 mm 49.0 W/m2
08:21 -9.3 °C -11.3 °C 1017.5 hPa WSW 14.8 km/h 14.8 km/h 85% 0 mm 53.0 W/m2
08:23 -9.3 °C -11.3 °C 1017.5 hPa WSW 18.5 km/h 18.5 km/h 85% 0 mm 58.0 W/m2
08:28 -9.2 °C -11.3 °C 1017.5 hPa WSW 9.3 km/h 9.3 km/h 85% 0 mm 62.0 W/m2
08:29 -9.2 °C -11.3 °C 1017.5 hPa WSW 11.3 km/h 11.3 km/h 85% 0 mm 62.0 W/m2
08:34 -9.2 °C -11.2 °C 1017.5 hPa Calm     85% 0 mm 69.0 W/m2
08:39 -9.2 °C -11.2 °C 1017.8 hPa West 13 km/h 13 km/h 85% 0 mm 72.0 W/m2
08:41 -9.2 °C -11.2 °C 1017.8 hPa West 13 km/h 13 km/h 85% 0 mm 74.0 W/m2
08:46 -9.1 °C -11 °C 1017.8 hPa WSW 18.5 km/h 18.5 km/h 86% 0 mm 81.0 W/m2
08:47 -9.1 °C -10.9 °C 1017.8 hPa WSW 14.5 km/h 14.5 km/h 86% 0 mm 83.0 W/m2
08:52 -9.1 °C -10.9 °C 1017.8 hPa West 11.3 km/h 11.3 km/h 86% 0 mm 90.0 W/m2
08:53 -9.1 °C -10.9 °C 1017.8 hPa WSW 14.8 km/h 14.8 km/h 86% 0 mm 90.0 W/m2
08:54 -9.1 °C -10.9 °C 1017.8 hPa WSW 16.7 km/h 16.7 km/h 86% 0 mm 90.0 W/m2
08:59 -9 °C -10.9 °C 1017.8 hPa West 13 km/h 13 km/h 86% 0 mm 95.0 W/m2
09:04 -8.9 °C -10.8 °C 1017.8 hPa WSW 13 km/h 13 km/h 86% 0 mm 98.0 W/m2
09:07 -8.9 °C -10.8 °C 1017.8 hPa West 14.8 km/h 14.8 km/h 86% 0 mm 98.0 W/m2
09:12 -8.9 °C -10.8 °C 1017.8 hPa WSW 14.8 km/h 14.8 km/h 86% 0 mm 107.0 W/m2
09:17 -8.8 °C -10.7 °C 1017.8 hPa WSW 16.1 km/h 16.1 km/h 86% 0 mm 114.0 W/m2
09:19 -8.8 °C -10.7 °C 1017.8 hPa WSW 11.1 km/h 11.1 km/h 86% 0 mm 120.0 W/m2
09:24 -8.8 °C -10.6 °C 1017.8 hPa WSW 11.1 km/h 11.1 km/h 87% 0 mm 135.0 W/m2
09:33 -8.7 °C -10.5 °C 1017.8 hPa WNW 11.1 km/h 11.1 km/h 87% 0 mm 162.0 W/m2
09:37 -8.7 °C -10.4 °C 1018.2 hPa WSW 7.4 km/h 7.4 km/h 87% 0 mm 155.0 W/m2
09:39 -8.7 °C -10.4 °C 1018.2 hPa WSW 13 km/h 13 km/h 87% 0 mm 151.0 W/m2
09:44 -8.6 °C -10.4 °C 1018.2 hPa WSW 22.2 km/h 22.2 km/h 87% 0 mm 155.0 W/m2
09:50 -8.5 °C -10.3 °C 1018.2 hPa West 7.4 km/h 7.4 km/h 87% 0 mm 172.0 W/m2
09:53 -8.4 °C -10.2 °C 1018.2 hPa West 5.6 km/h 5.6 km/h 87% 0 mm 163.0 W/m2
09:55 -8.4 °C -10.2 °C 1018.2 hPa West 17.7 km/h 17.7 km/h 87% 0 mm 160.0 W/m2
10:00 -8.4 °C -10.3 °C 1018.2 hPa West 13 km/h 13 km/h 86% 0 mm 165.0 W/m2
10:01 -8.4 °C -10.3 °C 1018.2 hPa WNW 13 km/h 13 km/h 86% 0 mm 163.0 W/m2
10:02 -8.4 °C -10.3 °C 1018.2 hPa WSW 18.5 km/h 18.5 km/h 86% 0 mm 169.0 W/m2
10:07 -8.3 °C -10.3 °C 1018.2 hPa West 14.8 km/h 14.8 km/h 86% 0 mm 172.0 W/m2
10:09 -8.3 °C -10.3 °C 1018.2 hPa WNW 9.3 km/h 9.3 km/h 86% 0 mm 176.0 W/m2
10:13 -8.3 °C -10.4 °C 1018.2 hPa WNW 18.5 km/h 18.5 km/h 85% 0 mm 179.0 W/m2
10:18 -8.4 °C -10.4 °C 1018.2 hPa West 13 km/h 13 km/h 85% 0 mm 193.0 W/m2
10:24 -8.4 °C -10.5 °C 1018.2 hPa WNW 18.5 km/h 18.5 km/h 85% 0 mm 192.0 W/m2
10:29 -8.5 °C -10.6 °C 1018.2 hPa WNW 14.8 km/h 14.8 km/h 85% 0 mm 216.0 W/m2
10:30 -8.5 °C -10.6 °C 1018.2 hPa WNW 14.8 km/h 14.8 km/h 85% 0 mm 211.0 W/m2
10:37 -8.6 °C -10.6 °C 1018.2 hPa WNW 18.5 km/h 18.5 km/h 85% 0 mm 225.0 W/m2
10:38 -8.6 °C -10.6 °C 1018.2 hPa West 16.7 km/h 16.7 km/h 85% 0 mm 225.0 W/m2
10:39 -8.5 °C -10.7 °C 1018.2 hPa WNW 14.5 km/h 14.5 km/h 84% 0 mm 223.0 W/m2
10:44 -8.5 °C -10.9 °C 1018.2 hPa West 11.1 km/h 11.1 km/h 83% 0 mm 230.0 W/m2
10:45 -8.5 °C -10.9 °C 1018.2 hPa WNW 11.1 km/h 11.1 km/h 83% 0 mm 225.0 W/m2
10:49 -8.5 °C -11 °C 1018.2 hPa West 16.7 km/h 16.7 km/h 82% 0 mm 221.0 W/m2
10:51 -8.5 °C -11 °C 1018.2 hPa WNW 18.5 km/h 18.5 km/h 82% 0 mm 223.0 W/m2
10:55 -8.5 °C -11 °C 1017.8 hPa WNW 14.8 km/h 14.8 km/h 82% 0 mm 218.0 W/m2
10:57 -8.6 °C -11.1 °C 1018.2 hPa West 16.7 km/h 16.7 km/h 82% 0 mm 207.0 W/m2
11:02 -8.6 °C -11.1 °C 1018.2 hPa NW 16.1 km/h 16.1 km/h 82% 0 mm 213.0 W/m2
11:07 -8.6 °C -11.1 °C 1018.2 hPa NW 18.5 km/h 18.5 km/h 82% 0 mm 243.0 W/m2
11:08 -8.6 °C -11.1 °C 1018.2 hPa NW 22.5 km/h 22.5 km/h 82% 0 mm 248.0 W/m2
11:13 -8.6 °C -11.3 °C 1017.8 hPa NW 14.8 km/h 14.8 km/h 81% 0 mm 248.0 W/m2
11:15 -8.6 °C -11.1 °C 1017.8 hPa WNW 14.8 km/h 14.8 km/h 82% 0 mm 232.0 W/m2
11:18 -8.6 °C -11.1 °C 1017.8 hPa NW 11.1 km/h 11.1 km/h 82% 0 mm 206.0 W/m2
11:20 -8.6 °C -11.1 °C 1017.8 hPa WNW 14.8 km/h 14.8 km/h 82% 0 mm 244.0 W/m2
11:24 -8.6 °C -11 °C 1017.8 hPa WNW 11.3 km/h 11.3 km/h 83% 0 mm 197.0 W/m2
11:27 -8.6 °C -11 °C 1017.8 hPa NW 18.5 km/h 18.5 km/h 83% 0 mm 153.0 W/m2
11:30 -8.7 °C -11.1 °C 1017.8 hPa NW 18.5 km/h 18.5 km/h 83% 0 mm 167.0 W/m2
11:33 -8.8 °C -11 °C 1017.5 hPa NNW 16.7 km/h 16.7 km/h 84% 0 mm 176.0 W/m2
11:35 -8.8 °C -11 °C 1017.5 hPa NW 14.8 km/h 14.8 km/h 84% 0 mm 163.0 W/m2
11:38 -8.8 °C -11.1 °C 1017.5 hPa NW 9.3 km/h 9.3 km/h 84% 0 mm 188.0 W/m2
11:43 -8.8 °C -11.1 °C 1017.8 hPa NW 13 km/h 13 km/h 84% 0 mm 179.0 W/m2
11:48 -8.8 °C -10.8 °C 1017.5 hPa WNW 9.3 km/h 9.3 km/h 85% 0 mm 167.0 W/m2
11:49 -8.8 °C -11 °C 1017.8 hPa WNW 5.6 km/h 5.6 km/h 84% 0 mm 169.0 W/m2
11:53 -8.7 °C -10.9 °C 1017.8 hPa WNW 8 km/h 8 km/h 84% 0 mm 202.0 W/m2
11:54 -8.7 °C -10.9 °C 1017.8 hPa WNW 14.8 km/h 14.8 km/h 84% 0 mm 214.0 W/m2
11:59 -8.7 °C -11.2 °C 1017.8 hPa WNW 13 km/h 13 km/h 82% 0 mm 241.0 W/m2
12:02 -8.6 °C -11.3 °C 1017.8 hPa WNW 9.3 km/h 9.3 km/h 81% 0 mm 225.0 W/m2
12:04 -8.6 °C -11.1 °C 1017.8 hPa NW 13 km/h 13 km/h 82% 0 mm 200.0 W/m2
12:09 -8.6 °C -11 °C 1017.8 hPa WNW 11.1 km/h 11.1 km/h 83% 0 mm 171.0 W/m2
12:13 -8.7 °C -10.9 °C 1017.8 hPa WNW 13 km/h 13 km/h 84% 0 mm 163.0 W/m2
12:17 -8.8 °C -11 °C 1017.8 hPa WNW 16.7 km/h 16.7 km/h 84% 0 mm 167.0 W/m2
12:22 -8.9 °C -10.8 °C 1017.8 hPa WNW 19.3 km/h 19.3 km/h 86% 0 mm 179.0 W/m2
12:24 -9.1 °C -11.1 °C 1017.8 hPa NW 18.5 km/h 18.5 km/h 85% 0 mm 178.0 W/m2
12:28 -9.3 °C -11.2 °C 1017.8 hPa WNW 22.2 km/h 22.2 km/h 86% 0 mm 200.0 W/m2
12:30 -9.3 °C -11.1 °C 1017.8 hPa WNW 11.1 km/h 11.1 km/h 87% 0 mm 216.0 W/m2
12:35 -9.3 °C -11.1 °C 1017.8 hPa NW 18.5 km/h 18.5 km/h 87% 0 mm 246.0 W/m2
12:44 -9.1 °C -10.8 °C 1017.8 hPa WNW 20.4 km/h 20.4 km/h 87% 0 mm 265.0 W/m2
12:45 -9.1 °C -10.8 °C 1017.8 hPa NW 20.4 km/h 20.4 km/h 87% 0 mm 264.0 W/m2
12:50 -9.1 °C -10.9 °C 1017.8 hPa NNW 20.4 km/h 20.4 km/h 86% 0.25 mm 250.0 W/m2
12:55 -9.1 °C -10.9 °C 1017.8 hPa NW 20.4 km/h 20.4 km/h 86% 0.25 mm 265.0 W/m2
12:56 -9.1 °C -10.9 °C 1017.8 hPa WNW 18.5 km/h 18.5 km/h 86% 0.25 mm 265.0 W/m2
12:57 -9.1 °C -10.9 °C 1017.8 hPa WNW 18.5 km/h 18.5 km/h 86% 0.25 mm 265.0 W/m2
13:02 -9.1 °C -10.9 °C 1017.8 hPa West 18.5 km/h 18.5 km/h 86% 0.25 mm 258.0 W/m2
13:07 -9.2 °C -11.4 °C 1017.8 hPa WNW 18.5 km/h 18.5 km/h 84% 0.25 mm 264.0 W/m2
13:09 -9.2 °C -11.4 °C 1017.8 hPa WNW 16.7 km/h 16.7 km/h 84% 0.25 mm 260.0 W/m2
13:14 -9.2 °C -11.4 °C 1017.8 hPa NW 20.4 km/h 20.4 km/h 84% 0.25 mm 257.0 W/m2
13:15 -9.2 °C -11.6 °C 1017.8 hPa WNW 14.5 km/h 14.5 km/h 83% 0.25 mm 257.0 W/m2
13:19 -9.2 °C -11.6 °C 1017.8 hPa West 24.1 km/h 24.1 km/h 83% 0.25 mm 257.0 W/m2
13:20 -9.2 °C -11.6 °C 1017.8 hPa WNW 27.4 km/h 27.4 km/h 83% 0.25 mm 251.0 W/m2
13:24 -9.3 °C -11.6 °C 1017.8 hPa WNW 20.4 km/h 20.4 km/h 83% 0.25 mm 246.0 W/m2
13:29 -9.3 °C -11.6 °C 1017.8 hPa NW 20.4 km/h 20.4 km/h 83% 0.25 mm 237.0 W/m2
13:32 -9.3 °C -11.6 °C 1017.8 hPa NW 22.5 km/h 22.5 km/h 83% 0.25 mm 236.0 W/m2
13:35 -9.3 °C -11.8 °C 1017.8 hPa WNW 27.8 km/h 27.8 km/h 82% 0.25 mm 223.0 W/m2
13:41 -9.4 °C -12.1 °C 1017.8 hPa NW 22.2 km/h 22.2 km/h 81% 0.25 mm 221.0 W/m2
13:42 -9.4 °C -12.1 °C 1017.8 hPa WNW 20.4 km/h 20.4 km/h 81% 0.25 mm 221.0 W/m2
13:46 -9.5 °C -12.2 °C 1018.2 hPa WSW 20.4 km/h 20.4 km/h 81% 0 mm 260.0 W/m2
13:48 -9.5 °C -12.2 °C 1018.2 hPa WNW 18.5 km/h 18.5 km/h 81% 0 mm 297.0 W/m2
13:51 -9.5 °C -12.2 °C 1018.2 hPa WNW 18.5 km/h 18.5 km/h 81% 0 mm 230.0 W/m2
13:55 -9.5 °C -12.3 °C 1018.2 hPa WNW 13 km/h 13 km/h 80% 0 mm 367.0 W/m2
13:57 -9.5 °C -12.3 °C 1017.8 hPa West 18.5 km/h 18.5 km/h 80% 0 mm 359.0 W/m2
14:02 -9.3 °C -12.2 °C 1018.2 hPa WNW 19.3 km/h 19.3 km/h 79% 0 mm 497.0 W/m2
14:03 -9.2 °C -12.2 °C 1018.2 hPa WNW 18.5 km/h 18.5 km/h 79% 0 mm 547.0 W/m2
14:08 -9 °C -12 °C 1018.2 hPa WNW 16.7 km/h 16.7 km/h 79% 0 mm 503.0 W/m2
14:13 -9 °C -12.1 °C 1018.2 hPa WNW 24.1 km/h 24.1 km/h 78% 0 mm 334.0 W/m2
14:15 -9.1 °C -12.3 °C 1018.2 hPa WNW 18.5 km/h 18.5 km/h 77% 0 mm 323.0 W/m2
14:20 -9.2 °C -12.4 °C 1018.2 hPa West 20.4 km/h 20.4 km/h 77% 0 mm 323.0 W/m2
14:22 -9.2 °C -12.5 °C 1018.2 hPa WNW 18.5 km/h 18.5 km/h 77% 0 mm 374.0 W/m2
14:26 -9.3 °C -12.6 °C 1018.5 hPa NW 20.4 km/h 20.4 km/h 77% 0 mm 325.0 W/m2
14:28 -9.3 °C -12.6 °C 1018.5 hPa NW 18.5 km/h 18.5 km/h 77% 0 mm 229.0 W/m2
14:31 -9.3 °C -12.6 °C 1018.5 hPa NW 16.7 km/h 16.7 km/h 77% 0 mm 350.0 W/m2
14:36 -9.3 °C -12.6 °C 1018.5 hPa NW 20.4 km/h 20.4 km/h 77% 0 mm 334.0 W/m2
14:39 -9.4 °C -12.9 °C 1018.5 hPa WNW 20.4 km/h 20.4 km/h 76% 0 mm 269.0 W/m2
14:44 -9.6 °C -13.2 °C 1018.5 hPa WNW 20.4 km/h 20.4 km/h 75% 0 mm 248.0 W/m2
14:49 -9.8 °C -13.6 °C 1018.5 hPa WNW 22.2 km/h 22.2 km/h 74% 0 mm 223.0 W/m2
14:54 -9.8 °C -13.6 °C 1018.8 hPa WNW 16.7 km/h 16.7 km/h 74% 0 mm 218.0 W/m2
14:57 -9.9 °C -13.7 °C 1018.8 hPa West 18.5 km/h 18.5 km/h 74% 0 mm 213.0 W/m2
15:01 -9.9 °C -13.5 °C 1018.8 hPa West 18.5 km/h 18.5 km/h 75% 0 mm 202.0 W/m2
15:02 -9.9 °C -13.6 °C 1018.8 hPa WNW 18.5 km/h 18.5 km/h 75% 0 mm 195.0 W/m2
15:07 -10 °C -13.8 °C 1018.8 hPa WNW 13 km/h 13 km/h 74% 0 mm 178.0 W/m2
15:10 -10 °C -13.8 °C 1018.8 hPa West 14.5 km/h 14.5 km/h 74% 0 mm 167.0 W/m2
15:13 -10.1 °C -13.8 °C 1019.2 hPa NW 19.3 km/h 19.3 km/h 74% 0 mm 160.0 W/m2
15:17 -10.2 °C -13.9 °C 1018.8 hPa WNW 20.4 km/h 20.4 km/h 74% 0 mm 149.0 W/m2
15:18 -10.2 °C -13.9 °C 1019.2 hPa WNW 18.5 km/h 18.5 km/h 74% 0 mm 141.0 W/m2
15:23 -10.3 °C -14.2 °C 1019.2 hPa WNW 18.5 km/h 18.5 km/h 73% 0 mm 125.0 W/m2
15:24 -10.3 °C -14.2 °C 1019.2 hPa WNW 18.5 km/h 18.5 km/h 73% 0 mm 125.0 W/m2
15:26 -10.3 °C -14.2 °C 1019.2 hPa NW 18.5 km/h 18.5 km/h 73% 0 mm 118.0 W/m2
15:39 -10.6 °C -14.4 °C 1019.5 hPa WNW 16.7 km/h 16.7 km/h 73% 0 mm 90.0 W/m2
15:40 -10.6 °C -14.4 °C 1019.5 hPa West 13 km/h 13 km/h 73% 0 mm 86.0 W/m2
15:41 -10.6 °C -14.4 °C 1019.5 hPa WNW 17.7 km/h 17.7 km/h 73% 0 mm 77.0 W/m2
15:46 -10.7 °C -14.6 °C 1019.5 hPa NW 13 km/h 13 km/h 73% 0 mm 37.0 W/m2
15:49 -10.8 °C -14.7 °C 1019.5 hPa West 16.7 km/h 16.7 km/h 73% 0 mm 35.0 W/m2
15:56 -10.9 °C -14.7 °C 1019.5 hPa WNW 16.7 km/h 16.7 km/h 74% 0 mm 30.0 W/m2
15:58 -11 °C -14.7 °C 1019.5 hPa West 16.7 km/h 16.7 km/h 74% 0 mm 28.0 W/m2
16:02 -11.1 °C -14.8 °C 1019.5 hPa WNW 11.1 km/h 11.1 km/h 74% 0 mm 26.0 W/m2
16:03 -11.1 °C -14.8 °C 1019.5 hPa West 18.5 km/h 18.5 km/h 74% 0 mm 25.0 W/m2
16:08 -11.2 °C -14.9 °C 1019.9 hPa WNW 13 km/h 13 km/h 74% 0 mm 21.0 W/m2
16:09 -11.2 °C -14.9 °C 1019.9 hPa NW 18.5 km/h 18.5 km/h 74% 0 mm 21.0 W/m2
16:14 -11.3 °C -15 °C 1019.9 hPa NW 18.5 km/h 18.5 km/h 74% 0 mm 18.0 W/m2
16:19 -11.4 °C -15.1 °C 1019.9 hPa WNW 13 km/h 13 km/h 74% 0 mm 14.0 W/m2
16:24 -11.5 °C -15.1 °C 1020.2 hPa WNW 16.7 km/h 16.7 km/h 75% 0 mm 11.0 W/m2
16:25 -11.5 °C -15.1 °C 1020.2 hPa WNW 11.3 km/h 11.3 km/h 75% 0 mm 11.0 W/m2
16:26 -11.6 °C -15.2 °C 1020.2 hPa NW 12.9 km/h 12.9 km/h 75% 0 mm 11.0 W/m2
16:30 -11.7 °C -15.2 °C 1020.2 hPa West 9.3 km/h 9.3 km/h 75% 0 mm 7.0 W/m2
16:31 -11.7 °C -15.3 °C 1020.2 hPa WNW 18.5 km/h 18.5 km/h 75% 0 mm 7.0 W/m2
16:36 -11.8 °C -15.2 °C 1020.2 hPa WNW 16.7 km/h 16.7 km/h 76% 0 mm 0.0 W/m2
16:37 -11.8 °C -15.2 °C 1020.2 hPa WNW 16.7 km/h 16.7 km/h 76% 0 mm 0.0 W/m2
16:42 -11.9 °C -15.4 °C 1020.2 hPa NW 18.5 km/h 18.5 km/h 75% 0 mm 0.0 W/m2
16:43 -11.9 °C -15.3 °C 1020.2 hPa WNW 14.8 km/h 14.8 km/h 76% 0 mm 0.0 W/m2
16:47 -12 °C -15.4 °C 1020.5 hPa West 11.1 km/h 11.1 km/h 76% 0 mm 0.0 W/m2
16:48 -12 °C -15.4 °C 1020.5 hPa WNW 18.5 km/h 18.5 km/h 76% 0 mm 0.0 W/m2
16:53 -12.1 °C -15.3 °C 1020.5 hPa West 14.8 km/h 14.8 km/h 77% 0 mm 0.0 W/m2
16:55 -12.1 °C -15.3 °C 1020.5 hPa West 16.7 km/h 16.7 km/h 77% 0 mm 0.0 W/m2
17:00 -12.2 °C -15.6 °C 1020.5 hPa WNW 14.8 km/h 14.8 km/h 76% 0 mm 0.0 W/m2
17:01 -12.2 °C -15.6 °C 1020.5 hPa West 14.8 km/h 14.8 km/h 76% 0 mm 0.0 W/m2
17:06 -12.3 °C -15.5 °C 1020.5 hPa West 13 km/h 13 km/h 77% 0 mm 0.0 W/m2
17:11 -12.4 °C -15.7 °C 1020.5 hPa NW 11.1 km/h 11.1 km/h 77% 0 mm 0.0 W/m2
17:14 -12.5 °C -15.7 °C 1020.5 hPa WNW 19.3 km/h 19.3 km/h 77% 0 mm 0.0 W/m2
17:17 -12.5 °C -15.7 °C 1020.5 hPa WNW 14.8 km/h 14.8 km/h 77% 0 mm 0.0 W/m2
17:22 -12.6 °C -15.8 °C 1020.9 hPa WNW 13 km/h 13 km/h 77% 0 mm 0.0 W/m2
17:24 -12.6 °C -15.8 °C 1020.9 hPa WNW 14.8 km/h 14.8 km/h 77% 0 mm 0.0 W/m2
17:29 -12.6 °C -15.8 °C 1020.9 hPa WNW 18.5 km/h 18.5 km/h 77% 0 mm 0.0 W/m2
17:30 -12.6 °C -15.8 °C 1020.9 hPa WNW 16.7 km/h 16.7 km/h 77% 0 mm 0.0 W/m2
17:34 -12.7 °C -15.9 °C 1020.9 hPa WNW 16.7 km/h 16.7 km/h 77% 0 mm 0.0 W/m2
17:36 -12.7 °C -15.9 °C 1020.9 hPa WNW 13 km/h 13 km/h 77% 0 mm 0.0 W/m2
17:39 -12.8 °C -15.9 °C 1020.9 hPa West 14.5 km/h 14.5 km/h 77% 0 mm 0.0 W/m2
17:44 -12.8 °C -15.8 °C 1020.9 hPa NW 13 km/h 13 km/h 78% 0 mm 0.0 W/m2
17:45 -12.8 °C -15.9 °C 1020.9 hPa WNW 13 km/h 13 km/h 78% 0 mm 0.0 W/m2
17:50 -12.9 °C -16 °C 1020.9 hPa WNW 11.1 km/h 11.1 km/h 78% 0 mm 0.0 W/m2
18:00 -13.1 °C -16.1 °C 1021.2 hPa WNW 18.5 km/h 18.5 km/h 78% 0 mm 0.0 W/m2
18:05 -13 °C -16.1 °C 1021.2 hPa NW 14.8 km/h 14.8 km/h 78% 0 mm 0.0 W/m2
18:06 -13 °C -16.1 °C 1021.6 hPa West 14.8 km/h 14.8 km/h 78% 0 mm 0.0 W/m2
18:11 -13 °C -16.1 °C 1021.2 hPa WNW 13 km/h 13 km/h 78% 0 mm 0.0 W/m2
18:16 -13.1 °C -16.1 °C 1021.6 hPa WNW 14.8 km/h 14.8 km/h 78% 0 mm 0.0 W/m2
18:19 -13.1 °C -16.2 °C 1021.6 hPa West 13 km/h 13 km/h 78% 0 mm 0.0 W/m2
18:21 -13.1 °C -16.2 °C 1021.6 hPa WNW 16.7 km/h 16.7 km/h 78% 0 mm 0.0 W/m2
18:26 -13.2 °C -16.4 °C 1021.6 hPa NW 16.7 km/h 16.7 km/h 77% 0 mm 0.0 W/m2
18:27 -13.2 °C -16.4 °C 1021.9 hPa NW 9.3 km/h 9.3 km/h 77% 0 mm 0.0 W/m2
18:32 -13.3 °C -16.3 °C 1021.9 hPa WNW 18.5 km/h 18.5 km/h 78% 0 mm 0.0 W/m2
18:33 -13.3 °C -16.3 °C 1021.9 hPa WNW 14.8 km/h 14.8 km/h 78% 0 mm 0.0 W/m2
18:38 -13.4 °C -16.4 °C 1021.9 hPa NW 16.7 km/h 16.7 km/h 78% 0 mm 0.0 W/m2
18:39 -13.4 °C -16.4 °C 1021.9 hPa NW 16.7 km/h 16.7 km/h 78% 0 mm 0.0 W/m2
18:44 -13.4 °C -16.6 °C 1021.9 hPa West 9.7 km/h 9.7 km/h 77% 0 mm 0.0 W/m2
18:49 -13.6 °C -16.6 °C 1021.9 hPa WNW 11.1 km/h 11.1 km/h 78% 0 mm 0.0 W/m2
18:51 -13.6 °C -16.8 °C 1021.9 hPa WNW 11.1 km/h 11.1 km/h 77% 0 mm 0.0 W/m2
18:54 -13.7 °C -16.8 °C 1021.9 hPa WNW 18.5 km/h 18.5 km/h 77% 0 mm 0.0 W/m2
18:56 -13.7 °C -16.7 °C 1021.9 hPa WNW 11.3 km/h 11.3 km/h 78% 0 mm 0.0 W/m2
19:01 -13.8 °C -16.9 °C 1021.9 hPa WNW 11.1 km/h 11.1 km/h 77% 0 mm 0.0 W/m2
19:02 -13.8 °C -16.9 °C 1021.9 hPa West 11.1 km/h 11.1 km/h 77% 0 mm 0.0 W/m2
19:03 -13.8 °C -16.9 °C 1021.9 hPa WNW 16.7 km/h 16.7 km/h 77% 0 mm 0.0 W/m2
19:08 -13.8 °C -16.8 °C 1022.2 hPa WNW 14.5 km/h 14.5 km/h 78% 0 mm 0.0 W/m2
19:09 -13.8 °C -17 °C 1022.2 hPa NW 16.7 km/h 16.7 km/h 77% 0 mm 0.0 W/m2
19:13 -13.9 °C -17.1 °C 1022.2 hPa WNW 16.7 km/h 16.7 km/h 77% 0 mm 0.0 W/m2
19:14 -13.9 °C -17.1 °C 1022.2 hPa WNW 14.5 km/h 14.5 km/h 77% 0 mm 0.0 W/m2
19:19 -13.9 °C -17.1 °C 1022.2 hPa WNW 13 km/h 13 km/h 77% 0 mm 0.0 W/m2
19:20 -13.9 °C -17.1 °C 1022.2 hPa NW 13 km/h 13 km/h 77% 0 mm 0.0 W/m2
19:25 -14.1 °C -17.2 °C 1022.2 hPa WNW 13 km/h 13 km/h 77% 0 mm 0.0 W/m2
19:30 -14.2 °C -17.3 °C 1022.2 hPa West 11.1 km/h 11.1 km/h 77% 0 mm 0.0 W/m2
19:31 -14.2 °C -17.3 °C 1022.2 hPa WNW 14.8 km/h 14.8 km/h 77% 0 mm 0.0 W/m2
19:36 -14.3 °C -17.4 °C 1022.2 hPa WNW 14.8 km/h 14.8 km/h 77% 0 mm 0.0 W/m2
19:41 -14.3 °C -17.4 °C 1022.2 hPa WNW 13 km/h 13 km/h 77% 0 mm 0.0 W/m2
19:46 -14.3 °C -17.5 °C 1022.2 hPa WNW 16.7 km/h 16.7 km/h 77% 0 mm 0.0 W/m2
19:47 -14.3 °C -17.5 °C 1022.2 hPa WNW 16.7 km/h 16.7 km/h 77% 0 mm 0.0 W/m2
19:48 -14.3 °C -17.5 °C 1022.2 hPa WNW 9.3 km/h 9.3 km/h 77% 0 mm 0.0 W/m2
19:53 -14.4 °C -17.6 °C 1022.6 hPa NW 14.8 km/h 14.8 km/h 77% 0 mm 0.0 W/m2
19:58 -14.6 °C -17.8 °C 1022.2 hPa WNW 14.8 km/h 14.8 km/h 77% 0 mm 0.0 W/m2
20:03 -14.7 °C -17.8 °C 1022.2 hPa WNW 14.5 km/h 14.5 km/h 77% 0.25 mm 0.0 W/m2
20:04 -14.7 °C -17.8 °C 1022.2 hPa WNW 14.8 km/h 14.8 km/h 77% 0.25 mm 0.0 W/m2
20:06 -14.8 °C -17.9 °C 1022.2 hPa West 14.5 km/h 14.5 km/h 77% 0.25 mm 0.0 W/m2
20:09 -14.8 °C -17.9 °C 1022.2 hPa WNW 11.1 km/h 11.1 km/h 77% 0.25 mm 0.0 W/m2
20:14 -15 °C -18.1 °C 1022.2 hPa WNW 9.3 km/h 9.3 km/h 77% 0.25 mm 0.0 W/m2
20:16 -15 °C -18.1 °C 1022.2 hPa WNW 14.8 km/h 14.8 km/h 77% 0.25 mm 0.0 W/m2
20:21 -15.2 °C -18.3 °C 1022.6 hPa WNW 11.1 km/h 11.1 km/h 77% 0.51 mm 0.0 W/m2
20:22 -15.2 °C -18.2 °C 1022.6 hPa West 14.8 km/h 14.8 km/h 78% 0.51 mm 0.0 W/m2
20:27 -15.3 °C -18.2 °C 1022.2 hPa WNW 13 km/h 13 km/h 78% 0.51 mm 0.0 W/m2
20:29 -15.3 °C -18.3 °C 1022.6 hPa WNW 7.4 km/h 7.4 km/h 78% 0.51 mm 0.0 W/m2
20:31 -15.3 °C -18.3 °C 1022.2 hPa WNW 9.3 km/h 9.3 km/h 78% 0.51 mm 0.0 W/m2
20:35 -15.3 °C -18.3 °C 1022.2 hPa WNW 16.7 km/h 16.7 km/h 78% 0.51 mm 0.0 W/m2
20:36 -15.3 °C -18.3 °C 1022.2 hPa WNW 11.1 km/h 11.1 km/h 78% 0.51 mm 0.0 W/m2
20:41 -15.3 °C -18.3 °C 1022.6 hPa NW 14.8 km/h 14.8 km/h 78% 0.51 mm 0.0 W/m2
20:43 -15.3 °C -18.3 °C 1022.6 hPa West 14.8 km/h 14.8 km/h 78% 0.51 mm 0.0 W/m2
20:48 -15.4 °C -18.3 °C 1022.6 hPa WNW 14.8 km/h 14.8 km/h 78% 0.51 mm 0.0 W/m2
20:58 -15.5 °C -18.4 °C 1022.6 hPa NW 14.8 km/h 14.8 km/h 78% 0.76 mm 0.0 W/m2
20:59 -15.5 °C -18.4 °C 1022.6 hPa WNW 13 km/h 13 km/h 78% 0.76 mm 0.0 W/m2
21:04 -15.5 °C -18.4 °C 1022.6 hPa WNW 13 km/h 13 km/h 78% 0.51 mm 0.0 W/m2
21:05 -15.5 °C -18.4 °C 1022.6 hPa NW 16.7 km/h 16.7 km/h 78% 0.51 mm 0.0 W/m2
21:10 -15.5 °C -18.4 °C 1022.6 hPa NW 11.1 km/h 11.1 km/h 78% 0.51 mm 0.0 W/m2
21:14 -15.5 °C -18.4 °C 1022.6 hPa NW 14.8 km/h 14.8 km/h 78% 0.51 mm 0.0 W/m2
21:16 -15.6 °C -18.5 °C 1022.6 hPa WNW 13 km/h 13 km/h 78% 0.51 mm 0.0 W/m2
21:21 -15.6 °C -18.5 °C 1022.6 hPa WNW 13 km/h 13 km/h 78% 0.25 mm 0.0 W/m2
21:26 -15.6 °C -18.7 °C 1022.6 hPa WNW 14.8 km/h 14.8 km/h 77% 0.25 mm 0.0 W/m2
21:27 -15.6 °C -18.5 °C 1022.6 hPa NW 13 km/h 13 km/h 78% 0.25 mm 0.0 W/m2
21:31 -15.7 °C -18.8 °C 1022.6 hPa WNW 14.8 km/h 14.8 km/h 77% 0.25 mm 0.0 W/m2
21:32 -15.7 °C -18.8 °C 1022.6 hPa WNW 14.8 km/h 14.8 km/h 77% 0.25 mm 0.0 W/m2
21:37 -15.8 °C -18.9 °C 1022.6 hPa WNW 14.8 km/h 14.8 km/h 77% 0.25 mm 0.0 W/m2
21:38 -15.8 °C -18.9 °C 1022.6 hPa WNW 14.8 km/h 14.8 km/h 77% 0.25 mm 0.0 W/m2
21:43 -16 °C -19.1 °C 1022.6 hPa WNW 14.8 km/h 14.8 km/h 77% 0.25 mm 0.0 W/m2
21:48 -16.1 °C -19 °C 1022.6 hPa WNW 14.8 km/h 14.8 km/h 78% 0 mm 0.0 W/m2
21:51 -16.1 °C -19.1 °C 1022.6 hPa WNW 16.7 km/h 16.7 km/h 78% 0 mm 0.0 W/m2
21:55 -16.1 °C -19.1 °C 1022.6 hPa WNW 16.7 km/h 16.7 km/h 78% 0 mm 0.0 W/m2
22:00 -16.1 °C -19.1 °C 1022.9 hPa NW 18.5 km/h 18.5 km/h 78% 0 mm 0.0 W/m2
22:01 -16.1 °C -19.1 °C 1022.6 hPa WNW 16.7 km/h 16.7 km/h 78% 0 mm 0.0 W/m2
22:05 -16.1 °C -19.1 °C 1022.6 hPa WNW 13 km/h 13 km/h 78% 0 mm 0.0 W/m2
22:06 -16.1 °C -19.1 °C 1022.6 hPa WNW 11.1 km/h 11.1 km/h 78% 0 mm 0.0 W/m2
22:10 -16.2 °C -19.1 °C 1022.6 hPa WNW 13 km/h 13 km/h 78% 0 mm 0.0 W/m2
22:11 -16.2 °C -19.2 °C 1022.6 hPa NW 14.8 km/h 14.8 km/h 78% 0 mm 0.0 W/m2
22:13 -16.3 °C -19.2 °C 1024.9 hPa West 13 km/h 13 km/h 78% 0 mm 0.0 W/m2
22:14 -16.3 °C -19.2 °C 1024.9 hPa WNW 13 km/h 13 km/h 78% 0 mm 0.0 W/m2
22:15 -16.3 °C -19.3 °C 1024.9 hPa WNW 16.7 km/h 16.7 km/h 78% 0 mm 0.0 W/m2
22:16 -16.3 °C -19.3 °C 1022.6 hPa WNW 16.7 km/h 16.7 km/h 78% 0 mm 0.0 W/m2
22:17 -16.3 °C -19.3 °C 1022.9 hPa NW 16.7 km/h 16.7 km/h 78% 0 mm 0.0 W/m2
22:22 -16.4 °C -19.3 °C 1022.9 hPa WNW 8 km/h 8 km/h 78% 0 mm 0.0 W/m2
22:27 -16.6 °C -19.5 °C 1022.6 hPa NW 16.7 km/h 16.7 km/h 78% 0 mm 0.0 W/m2
22:29 -16.6 °C -19.6 °C 1022.6 hPa WNW 11.1 km/h 11.1 km/h 78% 0 mm 0.0 W/m2
22:34 -16.6 °C -19.6 °C 1022.6 hPa WNW 13 km/h 13 km/h 78% 0 mm 0.0 W/m2
22:37 -16.7 °C -19.6 °C 1022.6 hPa WNW 13 km/h 13 km/h 78% 0 mm 0.0 W/m2
22:40 -16.6 °C -19.6 °C 1024.9 hPa WNW 14.8 km/h 14.8 km/h 78% 0 mm 0.0 W/m2
22:42 -16.6 °C -19.4 °C 1024.9 hPa NW 16.7 km/h 16.7 km/h 79% 0 mm 0.0 W/m2
22:43 -16.6 °C -19.3 °C 1022.6 hPa West 14.5 km/h 14.5 km/h 79% 0 mm 0.0 W/m2
22:48 -16.4 °C -19.2 °C 1022.6 hPa WNW 18.5 km/h 18.5 km/h 79% 0 mm 0.0 W/m2
22:49 -16.4 °C -19.2 °C 1022.6 hPa NW 18.5 km/h 18.5 km/h 79% 0 mm 0.0 W/m2
22:50 -16.4 °C -19.2 °C 1024.9 hPa WNW 14.5 km/h 14.5 km/h 79% 0 mm 0.0 W/m2
22:52 -16.4 °C -19.4 °C 1024.9 hPa WNW 18.5 km/h 18.5 km/h 78% 0 mm 0.0 W/m2
22:53 -16.4 °C -19.4 °C 1022.6 hPa WNW 16.7 km/h 16.7 km/h 78% 0 mm 0.0 W/m2
22:54 -16.4 °C -19.4 °C 1022.6 hPa WNW 18.5 km/h 18.5 km/h 78% 0 mm 0.0 W/m2
22:57 -16.4 °C -19.4 °C 1022.6 hPa WNW 16.7 km/h 16.7 km/h 78% 0 mm 0.0 W/m2
23:01 -16.4 °C -19.4 °C 1022.6 hPa NW 18.5 km/h 18.5 km/h 78% 0 mm 0.0 W/m2
23:06 -16.4 °C -19.4 °C 1022.6 hPa WNW 17.7 km/h 17.7 km/h 78% 0 mm 0.0 W/m2
23:07 -16.4 °C -19.4 °C 1022.6 hPa NW 18.5 km/h 18.5 km/h 78% 0 mm 0.0 W/m2
23:13 -16.5 °C -19.4 °C 1022.6 hPa NW 14.8 km/h 14.8 km/h 78% 0 mm 0.0 W/m2
23:16 -16.6 °C -19.5 °C 1022.6 hPa NW 16.7 km/h 16.7 km/h 78% 0 mm 0.0 W/m2
23:19 -16.6 °C -19.5 °C 1022.6 hPa WNW 19.3 km/h 19.3 km/h 78% 0 mm 0.0 W/m2
23:24 -16.7 °C -19.6 °C 1022.6 hPa WNW 18.5 km/h 18.5 km/h 78% 0 mm 0.0 W/m2
23:25 -16.7 °C -19.6 °C 1022.6 hPa WNW 18.5 km/h 18.5 km/h 78% 0 mm 0.0 W/m2
23:31 -16.7 °C -19.7 °C 1022.6 hPa WNW 16.1 km/h 16.1 km/h 78% 0 mm 0.0 W/m2
23:33 -16.7 °C -19.7 °C 1022.6 hPa WNW 20.4 km/h 20.4 km/h 78% 0 mm 0.0 W/m2
23:34 -16.7 °C -19.7 °C 1024.9 hPa WNW 14.8 km/h 14.8 km/h 78% 0 mm 0.0 W/m2
23:39 -16.8 °C -19.7 °C 1022.6 hPa West 20.4 km/h 20.4 km/h 78% 0 mm 0.0 W/m2
23:45 -16.8 °C -19.7 °C 1022.6 hPa West 18.5 km/h 18.5 km/h 78% 0 mm 0.0 W/m2
23:50 -16.8 °C -19.8 °C 1022.6 hPa NW 18.5 km/h 18.5 km/h 78% 0 mm 0.0 W/m2
23:53 -16.8 °C -19.8 °C 1022.6 hPa West 18.5 km/h 18.5 km/h 78% 0 mm 0.0 W/m2
23:58 -16.9 °C -19.9 °C 1022.6 hPa WNW 18.5 km/h 18.5 km/h 78% 0 mm 0.0 W/m2
23:59 -17 °C -19.9 °C 1022.6 hPa WNW 14.8 km/h 14.8 km/h 78% 0 mm 0.0 W/m2
Bourbonnais, Illinois, USA
Compliments of Weather Underground - 2 mb